SWR5LD LSZH-LIRF

Flight info

Callsign SWR5LD
Flight time N/A
Altitude 37000
Route VEBIT T53 GERSA DCT SOSON DCT ODINA DCT EKPAL DCT TINKU DCT XIBIL
Aircraft A319/M-SDE3FGHIRWY/LB1

Departure

Time N/A
Airport Zürich Airport (LSZH)

Arrival

Time 2026-05-04 15:34
Airport Rome–Fiumicino Leonardo da Vinci International Airport (LIRF)
Time Latitude Longitude Altitude Speed Heading
2026-05-04 15:10 43.36158 10.72660 37106 ft 460 kts 168°
2026-05-04 15:10 43.33084 10.74077 37109 ft 460 kts 168°
2026-05-04 15:11 43.23973 10.78259 37098 ft 461 kts 168°
2026-05-04 15:11 43.17870 10.81052 36768 ft 462 kts 168°
2026-05-04 15:11 43.14825 10.82440 36510 ft 462 kts 168°
2026-05-04 15:12 43.11772 10.83832 36255 ft 462 kts 168°
2026-05-04 15:12 43.08715 10.85226 35941 ft 464 kts 169°
2026-05-04 15:12 43.05631 10.86628 35028 ft 471 kts 169°
2026-05-04 15:12 43.02496 10.88046 34130 ft 478 kts 169°
2026-05-04 15:13 42.99315 10.89484 33017 ft 486 kts 168°
2026-05-04 15:13 42.96104 10.90943 32026 ft 486 kts 167°
2026-05-04 15:13 42.92915 10.92399 31361 ft 478 kts 167°
2026-05-04 15:13 42.89787 10.93832 30702 ft 471 kts 167°
2026-05-04 15:14 42.86690 10.95245 30047 ft 469 kts 167°
2026-05-04 15:14 42.83631 10.96788 29352 ft 470 kts 160°
2026-05-04 15:14 42.80818 10.99038 28959 ft 467 kts 148°
2026-05-04 15:14 42.78402 11.01923 28772 ft 459 kts 137°
2026-05-04 15:15 42.76432 11.05309 28300 ft 455 kts 126°
2026-05-04 15:15 42.74729 11.08899 27494 ft 448 kts 125°
2026-05-04 15:15 42.73062 11.12442 26704 ft 441 kts 125°
2026-05-04 15:16 42.69782 11.19409 25661 ft 429 kts 125°
2026-05-04 15:16 42.68179 11.22794 25030 ft 423 kts 124°
2026-05-04 15:16 42.65040 11.29399 23725 ft 409 kts 124°
2026-05-04 15:17 42.63508 11.32620 22955 ft 403 kts 124°
2026-05-04 15:17 42.60501 11.38924 21704 ft 395 kts 125°
2026-05-04 15:17 42.59004 11.42058 21190 ft 394 kts 125°
2026-05-04 15:18 42.57522 11.45161 20635 ft 394 kts 125°
2026-05-04 15:18 42.55979 11.48207 20286 ft 386 kts 132°
2026-05-04 15:18 42.54114 11.50754 19753 ft 378 kts 144°
2026-05-04 15:19 42.49570 11.53947 18635 ft 363 kts 165°
2026-05-04 15:19 42.47194 11.55055 17916 ft 359 kts 165°
2026-05-04 15:19 42.42511 11.57267 16875 ft 355 kts 165°
2026-05-04 15:20 42.40156 11.58375 16109 ft 362 kts 164°
2026-05-04 15:20 42.37757 11.59495 15368 ft 367 kts 164°
2026-05-04 15:20 42.35324 11.60623 14647 ft 372 kts 165°
2026-05-04 15:20 42.32857 11.61722 13939 ft 375 kts 165°
2026-05-04 15:21 42.30368 11.62813 13152 ft 377 kts 165°
2026-05-04 15:21 42.27867 11.63893 12378 ft 377 kts 165°
2026-05-04 15:21 42.23556 11.67521 11340 ft 354 kts 132°
2026-05-04 15:22 42.22274 11.70238 11098 ft 336 kts 116°
2026-05-04 15:22 42.21399 11.73088 10940 ft 314 kts 114°
2026-05-04 15:22 42.19764 11.78399 9941 ft 302 kts 115°
2026-05-04 15:23 42.18967 11.80980 9411 ft 295 kts 115°
2026-05-04 15:23 42.18188 11.83502 8948 ft 287 kts 115°
2026-05-04 15:23 42.17436 11.85945 8531 ft 278 kts 115°
2026-05-04 15:23 42.16705 11.88320 8130 ft 269 kts 116°
2026-05-04 15:24 42.15540 11.92095 7479 ft 256 kts 116°
2026-05-04 15:24 42.14203 11.96407 6657 ft 246 kts 116°
2026-05-04 15:25 42.13544 11.98526 6185 ft 242 kts 116°
2026-05-04 15:25 42.12906 12.00584 5797 ft 235 kts 116°
2026-05-04 15:25 42.12285 12.02588 5426 ft 228 kts 116°
2026-05-04 15:26 42.10535 12.05936 4692 ft 214 kts 136°
2026-05-04 15:26 42.09505 12.07432 4319 ft 216 kts 135°
2026-05-04 15:26 42.07518 12.10335 4032 ft 206 kts 135°
2026-05-04 15:27 42.06532 12.11774 3651 ft 212 kts 135°
2026-05-04 15:27 42.04649 12.14531 3774 ft 186 kts 136°
2026-05-04 15:28 42.03030 12.16908 3916 ft 166 kts 136°
2026-05-04 15:28 42.02259 12.18037 4085 ft 164 kts 136°
2026-05-04 15:28 42.00321 12.19545 3435 ft 165 kts 164°
2026-05-04 15:29 41.99225 12.20005 3096 ft 164 kts 164°
2026-05-04 15:30 41.95180 12.21709 2216 ft 138 kts 165°
2026-05-04 15:30 41.92519 12.22895 1478 ft 131 kts 164°
2026-05-04 15:31 41.90802 12.23618 1302 ft 130 kts 167°
2026-05-04 15:31 41.89938 12.23991 1076 ft 129 kts 165°
2026-05-04 15:32 41.87365 12.25057 639 ft 130 kts 169°
2026-05-04 15:32 41.85645 12.25739 285 ft 130 kts 168°
2026-05-04 15:33 41.83966 12.26420 23 ft 115 kts 166°
2026-05-04 15:34 41.82525 12.27015 11 ft 53 kts 163°
2026-05-04 15:34 41.82192 12.27143 12 ft 43 kts 170°
2026-05-04 15:34 41.81907 12.27094 11 ft 0 kts 193°
2026-05-04 15:35 41.81843 12.27075 12 ft 10 kts 193°
2026-05-04 15:35 41.81757 12.27048 12 ft 13 kts 192°
2026-05-04 15:35 41.81661 12.27057 12 ft 14 kts 169°
2026-05-04 15:36 41.81457 12.27145 13 ft 16 kts 163°
2026-05-04 15:36 41.81345 12.27189 12 ft 17 kts 163°
2026-05-04 15:36 41.81228 12.27235 13 ft 18 kts 164°
2026-05-04 15:37 41.81107 12.27287 14 ft 19 kts 162°
2026-05-04 15:37 41.80982 12.27340 14 ft 19 kts 162°
2026-05-04 15:37 41.80845 12.27335 13 ft 20 kts 189°
2026-05-04 15:37 41.80708 12.27298 13 ft 20 kts 202°
2026-05-04 15:38 41.80641 12.27172 14 ft 17 kts 249°
2026-05-04 15:38 41.80600 12.27023 15 ft 17 kts 250°
2026-05-04 15:38 41.80558 12.26865 15 ft 18 kts 250°
2026-05-04 15:38 41.80513 12.26702 17 ft 19 kts 250°
2026-05-04 15:39 41.80464 12.26532 16 ft 0 kts 248°
2026-05-04 15:39 41.80464 12.26530 16 ft 1 kts 248°
2026-05-04 15:40 41.80459 12.26514 17 ft 3 kts 248°
2026-05-04 15:40 41.80450 12.26480 16 ft 5 kts 249°
2026-05-04 15:40 41.80434 12.26426 15 ft 8 kts 249°
2026-05-04 15:40 41.80396 12.26364 15 ft 10 kts 202°
2026-05-04 15:41 41.80318 12.26389 14 ft 13 kts 159°
2026-05-04 15:41 41.80224 12.26414 14 ft 14 kts 186°
2026-05-04 15:41 41.80129 12.26355 14 ft 15 kts 205°
2026-05-04 15:41 41.80029 12.26291 14 ft 17 kts 204°
2026-05-04 15:42 41.79921 12.26225 16 ft 17 kts 204°
2026-05-04 15:42 41.79807 12.26156 14 ft 18 kts 205°
2026-05-04 15:42 41.79764 12.26073 14 ft 11 kts 288°
2026-05-04 15:42 41.79796 12.25979 14 ft 12 kts 295°
2026-05-04 15:43 41.79832 12.25877 16 ft 13 kts 295°
2026-05-04 15:43 41.79846 12.25808 14 ft 5 kts 250°
2026-05-04 15:43 41.79816 12.25779 14 ft 6 kts 212°
2026-05-04 15:43 41.79773 12.25751 15 ft 8 kts 205°
2026-05-04 15:44 41.79723 12.25720 16 ft 5 kts 205°
2026-05-04 15:44 41.79709 12.25697 14 ft 3 kts 261°
2026-05-04 15:44 41.79718 12.25664 14 ft 4 kts 291°
2026-05-04 15:44 41.79727 12.25639 16 ft 0 kts 296°